804  
ASUS43 KFGF 291410  
RWRFGF  
PRAIRIE TO PINES WEATHER ROUNDUP  
NATIONAL WEATHER SERVICE EASTERN NORTH DAKOTA/GRAND FORKS ND  
800 AM CST THU FEB 29 2024  
 
**SATELLITE DATA USED TO AUGMENT SKY COVER AT AUTOMATED STATIONS**  
***** WEATHER ACROSS EASTERN NORTH DAKOTA *****  
 
CITY SKY/WX TMP DP RH WIND PRES REMARKS
 
GRAND FORKS MOCLDY 14 3 61 SE15 30.01F WCI -1  
GRAND FRKS AFB MOCLDY 13 3 64 E8 29.99S WCI 1  
GRAND FRKS NWS N/A 12 8 84 SE10 29.97 WCI -1  
DEVILS LAKE FAIR 8 2 76 SE13 29.88F WCI -8  
FARGO FAIR 16 4 59 SE14 30.01F WCI 2  
WAHPETON ARPT FAIR 16 7 67 SE17 30.01S WCI 0  

 
 
***** WEATHER ACROSS CENTRAL AND WESTERN NORTH DAKOTA *****  
 
CITY SKY/WX TMP DP RH WIND PRES REMARKS
 
BISMARCK FAIR 15 12 88 NE8 29.80F WCI 4  
MINOT FAIR 10 6 84 E6 29.74F WCI 0  
JAMESTOWN FAIR 10 3 73 SE9 29.89F WCI -3  
MINOT AFB MOCLDY 10 5 79 SE12 29.72F WCI -4  
GARRISON N/A 14 11 87 SE6 29.73F WCI 5  
WILLISTON NOT AVBL  
DICKINSON FAIR 29 21 72 S13 29.69F WCI 19  
HETTINGER FAIR 24 17 74 CALM 29.77S  

 
 
***** OTHER AIRPORT OBSERVATIONS IN OUR AREA *****  
 
CITY SKY/WX TMP DP RH WIND PRES REMARKS
 
WALHALLA MOCLDY 9 0 66 E15 30.00F WCI -8  
GRAFTON AIRPOR FAIR 10 3 72 E13 30.04F WCI -5  
VALLEY CITY AR FLURRIES 10 5 79 SE15 29.93F WCI -6  
CANDO FAIR 9 7 92 SE22 29.88F WCI -11  
CAVALIER APRT CLOUDY 9 3 78 SE12 30.02F WCI -6  
GWINNER CLEAR 14 14 100 SE20 29.94F WCI -3  
SHEYENNE NWR N/A 13 6 74 SE12 29.95S WCI -1  
ROLLA CLOUDY 9 5 85 SE17 29.83S WCI -10  
***** THE ABOVE OBSERVATIONS ARE NON NWS ARE NOT QUALITY  
CONTROLLED AND MAY MIS-REPORT RAIN FOR SNOW...  

 
 
***** WEATHER ACROSS NORTHERN MINNESOTA *****  
 
CITY SKY/WX TMP DP RH WIND PRES REMARKS
 
FLAG ISLAND NOT AVBL  
WARROAD CLOUDY 1 -4 78 E12 30.13F WCI -15  
ROSEAU CLOUDY 3 -4 72 E9 30.10F WCI -11  
HALLOCK NOT AVBL  
THF RVR FALLS CLOUDY 9 0 67 E17 30.04F WCI -9  
BAUDETTE CLOUDY 4 -7 60 E14 30.13F WCI -14  
WASKISH NOT AVBL  
CROOKSTON FAIR 14 3 62 SE15 30.02F WCI -1  
STEPHEN NDAWN N/A 9 1 72 MISG N/A  
GREENBUSH NDAW N/A 5 -2 72 MISG N/A  

 
***** WEATHER ACROSS CENTRAL AND WEST MINNESOTA *****  
 
CITY SKY/WX TMP DP RH WIND PRES REMARKS
 
FOSSTON FAIR 10 0 61 SE13 30.02F WCI -5  
BEMIDJI CLOUDY 8 -2 65 SE14 30.09S WCI -9  
PARK RAPIDS MOCLDY 11 -1 58 SE10 30.07F WCI -3  
ELBOW LAKE FAIR 17 4 56 SE16G23 30.03F WCI 2  
WADENA NOT AVBL  
DETROIT LAKES FAIR 10 0 61 SE17G28 30.03F WCI -7  
MOORHEAD FAIR 12 3 67 SE12 30.02F WCI -2  
FERGUS FALLS FAIR 16 5 62 SE18 30.02F WCI -1  
MORRIS MN FAIR 16 7 67 SE20G28 30.02F WCI -1  
STAPLES FAIR 12 0 57 SE7 30.10F WCI 2  

 
***** WEATHER ELSEWHERE ACROSS MINNESOTA *****  
 
CITY SKY/WX TMP DP RH WIND PRES REMARKS
 
DULUTH CLOUDY 8 0 69 SE10 30.21R WCI -6  
INTRNTL FALLS CLOUDY -9 -14 78 SE3 30.21S  
ELY CLOUDY -2 -8 78 SE5 30.23S WCI -12  
CLOQUET CLOUDY 7 -8 51 SE5 30.21R WCI -2  
WHEATON FAIR 16 7 67 SE18 30.03F WCI -1  
BRAINERD CLOUDY 11 -2 56 SE9 30.15F WCI -2  
HIBBING CLOUDY 3 -8 60 E6 30.20S WCI -8  
ALEXANDRIA FAIR 13 2 61 SE18G24 30.06F WCI -4  
SAINT CLOUD FAIR 15 1 53 E7 30.16F WCI 5  
MINNEAPOLIS FAIR 17 2 51 SE13 30.21F WCI 4  

 
 
***** WEATHER ACROSS SOUTH DAKOTA *****  
 
CITY SKY/WX TMP DP RH WIND PRES REMARKS
 
SIOUX FALLS FAIR 31 16 54 S10 30.00S WCI 22  
BROOKINGS FAIR 24 16 71 S13 29.97S WCI 12  
WATERTOWN FAIR 21 14 74 SE13 29.93S WCI 9  
HURON FAIR 26 18 71 SE12 29.92S WCI 16  
SISSETON N/A 14 8 77 SE15 29.99F WCI -1  
ABERDEEN FAIR 20 15 81 SE3 29.90F  
MITCHELL FAIR 28 18 66 S9 29.94S WCI 19  
PIERRE FAIR 23 20 88 CALM 29.84S  
MOBRIDGE FAIR 26 19 74 SE8 29.81S WCI 18  
RAPID CITY FAIR 28 19 69 W5 29.79F WCI 23  

 
 
***** SOME WEATHER IN NEARBY STATES *****  
 
CITY SKY/WX TMP DP RH WIND PRES REMARKS
 
GLASGOW MT FAIR 30 23 75 SE12 29.59F WCI 20  
GREAT FALLS MT FAIR 42 23 46 SW28G37 29.53S  
CHEYENNE WY FAIR 32 8 36 SW6 29.95S  
SCOTTSBLUFF NE FAIR 26 16 65 SW3 29.92S  
OMAHA NE FAIR 28 15 58 S15 30.21R WCI 16  
DES MOINES IA FAIR 30 13 49 S13 30.28S WCI 20  
DAVENPORT IA FAIR 24 9 52 S10 30.43R WCI 14  
CHICAGO IL FAIR 22 4 46 SW3 30.46R  
EAU CLAIRE WI FAIR 13 0 56 SE8 30.30S WCI 2  
LA CROSSE WI FAIR 16 4 59 E6 30.34S WCI 7  

 
 
***** SOME NATIONAL WEATHER *****  
 
CITY SKY/WX TMP DP RH WIND PRES REMARKS
 
LA GUARDIA NY FAIR 33 10 38 NW17G32 30.26R WCI 22  
RALEIGH NC PTSUNNY 42 19 39 VRB5 30.45R  
ATLANTA GA CLOUDY 41 20 43 NW7 30.42R  
NEW ORLEANS LA CLOUDY 57 32 38 E14 30.32R  
OKLAHOMA CITY PTSUNNY 31 22 69 S3 30.36F  
ALBUQUERQUE NM MOCLDY 35 16 45 N3 30.14R  
SALT LAKE CITY MOCLDY 36 23 59 SE8 29.97S  
LOS ANGELES CA CLOUDY 57 52 83 CALM 30.13R  
BOISE ID FAIR 49 30 48 SE17 29.72F  
SEATTLE WA LGT RAIN 38 35 89 S13 29.45S  

 
 
*** WEATHER ACROSS MANITOBA...SASKATCHEWAN AND ONTARIO ***  
***ONTARIO***  
 
CITY SKY/WX TMP DP RH WIND PRES REMARKS
 
GERALDTON NOT AVBL  
THUNDER BAY MOSUNNY -2 -11 65 W5 30.34S WCI -12  
SIOUX LOOKOUT PTCLDY -18 -24 76 S2 30.21F  
TORONTO MOSUNNY 23 7 50 W22G37 30.28R WCI 8  
BIG TROUT LK CLEAR -22 -29 69 NW8 30.17R WCI -41  
PICKLE LAKE CLEAR -20 -27 69 W6 30.19R WCI -36  
DRYDEN MOCLDY -9 -15 77 SE5 30.19S WCI -21  
KENORA MOCLDY -9 -15 77 SE9 30.15F WCI -27  

 
*** MANITOBA***  
 
CITY SKY/WX TMP DP RH WIND PRES REMARKS
 
BRANDON FLURRIES 7 0 72 E16G22 29.89S WCI -11  
DAUPHIN LGT SNOW 1 -4 78 E15 29.95F WCI -18  
ISLAND LAKE CLEAR -31 -38 68 SE3 30.22R  
PILOT MOUND N/A 9 0 66 SE20G25 N/A WCI -11  
THE PAS MOCLDY 0 -11 60 E13G20 30.03S WCI -18  
THOMPSON PTCLDY -38 -45 67 CALM 30.20R  
WINNIPEG LGT SNOW 3 -2 78 E15G22 30.09F WCI -15  
LYNN LAKE PTCLDY -29 -36 68 VRB2 30.10R  
CHURCHILL CRYSTALS -31 -38 68 NW12 30.21S WCI -56  
GILLAM CLEAR -27 -33 75 W8 30.24R WCI -48  

 
***SASKATCHEWAN***  
 
CITY SKY/WX TMP DP RH WIND PRES REMARKS
 
ESTEVAN PTCLDY 12 9 85 E16G23 29.67F WCI -4  
KINDERSLEY CLOUDY 32 27 80 S10 29.29F WCI 24  
LLOYDMINSTER LGT SNOW 3 0 85 E18G28 29.27F BLWGSNOWWCI -17  
PRINCE ALBERT CLOUDY 1 -6 71 E24G32 29.64F WCI -22  
REGINA MOCLDY 12 9 85 SE22G29 29.58F WCI -7  
YORKTON CLEAR 7 1 78 SE20G26 29.76S WCI -13  
N. BATTLEFORD LGT SNOW 3 -2 78 E28G35 29.42F BLWGSNOWWCI -21  
LA RONGE CLOUDY 1 -11 55 E17G24 29.78F WCI -19  
SASKATOON MOCLDY 7 3 85 E21G30 29.47F WCI -13  
SWIFT CURRENT MOCLDY 39 28 65 SW21G26 29.39F  

 
NOTE: THESE ARE AUTOMATED STATIONS WITH LIMITED QUALITY CONTROL  
"FAIR" INDICATES FEW OR NO CLOUDS BELOW 12,000 FEET WITH NO  
SIGNIFICANT WEATHER AND/OR S TO VISIBILITY
.  
SKY/WX - SKY CONDITION AND SIGNIFICANT WEATHER.  
TMP - AIR TEMPERATURE. DP - DEWPOINT TEMPERATURE.  
RH - RELATIVE HUMIDITY. PRES - PRESSURE.  
HX - HEAT INDEX. WCI - WIND CHILL INDEX.  
$  
 
 
CLICK HERE TO GO TO PREVIOUS BULLETINS.

The Nexlab ND Page
The Nexlab MN Page Main Text Page